Location: Fichous
(43.4833°N, 0.4500°W)
Time: 01:29:36
(UTC+00:00)

Daily predictions for brighter satellites

Satellite Brightness Start Highest point End
(mag) Time Altitude Azimuth Time Altitude Azimuth Time Altitude Azimuth
USA 267 3.9 03:15:39 10° NE 03:20:18 50° NE 03:20:18 50° NE
Cosmos 2333 Rocket 4.3 03:39:30 18° N 03:39:30 18° N 03:41:00 10° NNE
COSMOS 2455 4.3 03:45:06 28° N 03:45:06 28° N 03:48:00 10° NNE
ACS3 Solar Sail 3.0 03:45:00 10° N 03:47:53 30° N 03:47:53 30° N
Cosmos 2360 Rocket 3.8 03:59:09 23° N 03:59:09 23° N 04:01:21 10° NNE
Cosmos 2322 Rocket 4.0 03:59:31 21° N 03:59:31 21° N 04:01:29 10° NNE
USA 234 3.3 03:51:20 10° ESE 03:57:51 73° NE 03:58:53 62° NNW
Gbstr 26 Del rocket 4.1 03:59:16 50° E 03:59:16 50° E 04:03:43 10° ENE
SL-16 R/B 4.4 04:06:03 13° N 04:06:03 13° N 04:06:57 10° N
Cosmos 1943 Rocket 3.9 04:06:17 12° N 04:10:41 29° NE 04:15:26 10° ESE
ARGOS 3.1 04:11:21 10° NNE 04:16:17 73° N 04:16:17 73° N
PAYLOAD A 4.2 04:12:12 10° NNE 04:17:38 76° ESE 04:20:29 28° S
Cosmos 1140 Rocket 4.4 04:15:56 20° N 04:19:09 46° ENE 04:24:02 10° SE
Cosmos 1809 Rocket 4.3 04:15:55 10° S 04:22:02 88° E 04:28:10 10° N
CZ-2C R/B 2.5 04:17:05 10° NNE 04:21:33 70° N 04:21:33 70° N
ADEOS Rocket 3.9 04:21:06 10° N 04:25:41 37° NW 04:25:41 37° NW
NOSS 3-1 (C) 2.7 04:27:25 85° SW 04:27:32 89° WNW 04:33:02 10° NE
Cosmos 2100 Rocket 4.0 04:27:18 10° N 04:33:29 80° E 04:39:39 10° S
Cosmos 2219 Rocket 3.0 04:36:50 34° NNW 04:36:50 34° NNW 04:40:54 10° NNE
NOSS 0 Rocket 4.4 04:35:54 10° S 04:41:55 61° ESE 04:47:58 10° NNE
IRS-1D 4.3 04:37:19 10° NNE 04:42:08 49° E 04:46:54 10° S
COSMOS 2428 2.6 04:41:30 21° SSW 04:45:22 84° WNW 04:51:06 10° NNE
USA 59 Rocket 1.0 04:50:47 23° NNE 04:50:47 23° NNE 04:52:05 10° NNE
Cosmos 2322 3.6 04:50:01 30° SW 04:52:51 64° WNW 04:58:30 10° NNE
SL-08 RB Rocket 3.8 04:49:15 10° N 04:53:29 49° WNW 04:53:29 49° WNW
Cosmos 1459 Rocket 3.9 04:48:20 10° N 04:54:44 79° W 05:01:02 10° S
COSMO-SKYMED 1 3.9 04:53:51 10° SE 04:57:40 38° ENE 05:01:30 10° N
Meteor 2-21 4.3 04:51:39 10° SSW 04:57:42 67° W 05:03:45 10° N
FengYun 1-2 T 4.2 04:53:10 10° NNE 04:58:46 89° WNW 05:04:22 10° SSW
SKYMED 2 4.2 04:54:39 10° SSE 04:58:54 57° ENE 05:03:10 10° N
Cosmos 1727 Rocket 4.1 04:54:22 10° SSW 05:00:17 47° WNW 05:06:16 10° N
Cosmos 407 Rocket 4.1 04:56:06 10° NNW 05:01:08 56° ENE 05:06:08 10° SE
Cosmos 2228 Rocket 4.4 05:03:28 24° NNW 05:03:28 24° NNW 05:05:37 10° N
Cosmos 1023 Rocket 4.3 04:58:45 20° NNW 05:02:16 69° WSW 05:07:16 10° S
USA 267 3.9 04:58:54 10° NE 05:04:49 38° NNW 05:07:39 26° WNW
Cosmos 1980 4.1 04:59:36 10° S 05:05:10 65° ESE 05:10:47 10° NNE
Cosmos 1725 Rocket 4.0 04:58:48 10° N 05:05:10 86° E 05:11:29 10° S
NOSS 3-1 (A) 2.9 05:07:07 10° SSW 05:11:41 83° SE 05:17:11 10° NE
Cosmos 1802 Rocket 3.9 05:06:42 10° N 05:13:04 76° W 05:19:18 10° S
Cosmos 1269 Rocket 4.1 05:09:27 17° NW 05:13:18 52° WSW 05:18:24 10° S
Cosmos 1328 3.7 05:11:10 10° SSW 05:14:41 48° WNW 05:18:14 10° N
Cosmos 1703 Rocket 3.4 05:11:44 10° SSW 05:16:01 63° W 05:20:23 10° N
Cosmos 921 Rocket 4.1 05:16:56 25° WSW 05:16:56 25° WSW 05:19:55 10° SSW
Cosmos 2233 Rocket 4.3 05:10:03 10° N 05:16:23 72° E 05:22:37 10° SSE
Cosmos 2278 Rocket 2.2 05:12:26 10° NNW 05:18:08 88° ENE 05:23:48 10° SSE
NOSS 2-1 (E) 3.6 05:18:52 34° NW 05:18:56 34° NW 05:21:52 10° NNE
Meteor 2-16 Rocket 4.3 05:14:13 10° SSW 05:20:17 74° W 05:26:26 10° N
CZ-3 R/B 3.8 05:10:50 10° SW 05:20:26 23° S 05:25:13 10° SE
Cosmos 2333 Rocket 4.3 05:21:32 10° NNW 05:21:32 10° NNW 05:22:02 10° NNW
Cosmos 2237 Rocket 2.3 05:15:46 10° SSW 05:21:25 81° ESE 05:27:06 10° NNE
Cosmos 1939 Rocket 3.5 05:19:27 10° N 05:22:53 31° WNW 05:23:41 28° W
Cosmos 2173 Rocket 4.2 05:18:14 10° NNW 05:23:56 43° W 05:29:36 10° SSW
Cosmos 2292 Rocket 3.6 05:22:26 10° SSW 05:26:27 74° W 05:31:43 10° N
SL-08 R/B 4.4 05:21:08 10° N 05:27:16 81° W 05:33:26 10° S
BlueWalker 3 1.8 05:27:40 28° WNW 05:29:20 59° SW 05:32:53 10° SE
USA 276 2.1 05:29:39 37° WSW 05:30:13 45° SSW 05:32:54 10° SE
Meteor 1-24 Rocket 3.9 05:25:28 10° SSW 05:31:05 50° WNW 05:36:33 10° N
Helios 1A Rocket 2.4 05:28:43 10° S 05:32:03 59° WSW 05:35:25 10° NNW
ACS3 Solar Sail 3.4 05:30:20 10° NNW 05:32:02 13° NW 05:32:02 13° NW
Cosmos 2369 Rocket 4.4 05:31:14 10° N 05:35:26 21° NE 05:39:36 10° E
CZ-4 R/B 3.9 05:32:43 10° N 05:37:30 54° WNW 05:42:10 10° SSW
Cosmos 1782 Rocket 3.5 05:35:04 10° NNW 05:39:27 70° W 05:43:46 10° S
USA 234 4.0 05:35:18 10° SSE 05:41:10 35° SW 05:46:14 14° WNW
Cosmos 2123 Rocket 4.3 05:35:57 10° SW 05:41:48 42° WNW 05:47:40 10° N
Meteor 2-5 Rocket 4.1 05:36:36 10° SSW 05:42:16 46° WNW 05:47:54 10° N
Cosmos 1420 Rocket 4.1 05:38:20 10° SSW 05:43:36 87° ESE 05:48:55 10° NNE
Gbstr 26 Del rocket 4.0 05:41:19 17° W 05:45:02 46° NNW 05:50:57 10° ENE
NOAA 12 4.2 05:41:37 10° N 05:46:49 54° WNW 05:51:58 10° SSW
Cosmos 44 Rocket 4.1 05:43:41 14° NW 05:47:34 34° WSW 05:52:11 10° S
CENTAUR R/B 4.5 05:41:24 10° NNW 05:48:41 35° NE 05:56:57 10° E
Cosmos 1943 Rocket 2.5 05:49:19 10° NW 05:54:34 44° WSW 05:59:44 10° S
Cosmos 2016 Rocket 4.4 05:49:17 10° NNW 05:55:15 43° W 06:01:09 10° SSW
Cosmos 1812 3.5 05:55:33 10° N 05:58:21 39° E 06:01:06 10° SSE
CZ-2C R/B 4.2 05:57:34 10° NW 05:59:23 12° WNW 06:00:45 11° WNW
Cosmos 1300 Rocket 4.1 05:55:52 10° NNW 05:59:51 36° W 06:03:47 10° SSW
Cosmos 2346 Rocket 4.4 05:54:18 10° SSW 06:00:28 75° W 06:06:36 10° N
SMAP 4.5 05:56:40 10° NNE 06:01:08 44° E 06:05:34 10° S
SJ 16-02 1.5 06:07:15 10° NNW 06:11:34 73° ENE 06:15:50 10° SSE
Iridium 4 Rocket 4.2 06:09:14 10° NNW 06:12:28 21° W 06:15:36 10° SW
Aureole 3 Rocket 3.5 06:08:20 10° N 06:12:46 83° W 06:18:59 10° S
SWARM C 4.5 06:12:19 10° S 06:15:35 67° W 06:18:54 10° N
Cosmos 2061 Rocket 4.3 06:09:48 10° NNW 06:15:38 45° W 06:21:27 10° SSW
SWARM A 4.2 06:12:23 10° S 06:15:41 82° W 06:19:01 10° N
CBERS-1 4.0 06:11:50 10° N 06:16:58 75° WNW 06:22:03 10° SSW
Cosmos 1378 Rocket 3.6 06:13:57 10° S 06:18:13 82° E 06:22:30 10° N
SL-16 R/B 2.7 06:14:03 10° SSW 06:19:40 68° ESE 06:25:20 10° NNE
In-Cosmos 22 Rocket 4.3 06:14:45 10° SSW 06:20:33 76° W 06:26:24 10° N
Cosmos 1190 Rocket 4.1 06:15:54 10° NNW 06:21:07 63° WSW 06:26:16 10° S
Cosmos 676 Rocket 4.2 06:16:51 10° NNW 06:22:08 81° ENE 06:27:19 10° SSE
